Temperature
16 16 16 16 16 16 16 16 16 16 16 16 16 16 16 16 16 15 15 16 16 16 16 16 16 16 16 16 16 16 16 16 16 16 17 17 16 16 17 17 17 17 17
16 16 16 16 16 16 16 16 16 16 16 16 16 16 15 15 15 15 15 15 15 15 15 15 15 15 16 16 16 16 16 16 16 16 16 16 16 16 16 16 16 16 16
16 16 16 16 16 16 16 16 16 16 16 16 16 15 15 15 15 15 15 15 15 15 15 15 15 15 15 16 16 16 16 16 16 16 16 16 16 16 16 16 16 16 16
16 16 16 16 16 16 16 16 16 16 16 16 15 15 15 15 15 15 15 15 15 15 15 15 15 15 15 15 15 15 15 16 16 16 16 16 16 16 16 16 16 16 16
16 16 16 16 16 16 16 16 16 16 16 15 15 15 15 15 15 15 15 15 15 15 15 15 15 15 15 15 15 15 15 15 15 16 16 16 16 16 16 16 16 16 16
16 16 16 16 16 16 16 15 15 15 15 15 15 15 15 15 15 15 15 15 14 14 14 14 14 14 14 14 14 15 15 15 15 15 15 15 15 15 15 15 15 15 15
16 16 16 16 16 16 16 15 15 15 15 15 15 15 14 14 14 14 14 14 14 14 14 14 14 14 14 14 14 14 14 15 15 15 15 15 15 15 15 15 15 15 15
16 16 15 15 15 15 15 15 15 15 15 15 15 15 14 14 14 14 14 14 14 14 14 14 14 14 14 14 14 14 14 14 14 14 14 14 14 15 15 15 15 15 15
15 15 15 15 15 15 15 15 15 15 15 15 15 15 15 14 14 14 14 14 14 14 14 14 14 13 13 13 14 14 14 14 14 14 14 14 14 14 14 14 14 14 14
15 15 15 15 15 15 15 15 15 15 15 15 15 15 15 14 14 14 13 13 13 13 13 13 13 13 13 13 13 13 13 14 14 14 14 14 14 14 14 14 14 14 14
15 15 15 15 15 15 15 15 15 15 15 15 15 15 15 14 14 14 13 13 13 13 13 13 13 13 13 13 13 13 13 13 13 13 13 13 13 13 13 13 13 13 13
15 15 15 15 15 15 15 15 15 15 15 15 15 15 15 14 14 14 14 13 13 13 13 13 13 13 13 13 13 13 13 13 13 13 13 13 13 13 13 13 13 13 13
15 15 15 15 15 15 15 15 15 15 15 15 15 14 14 14 14 14 14 13 13 13 12 12 12 12 12 12 12 12 12 12 12 12 12 12 12 12 12 12 12 12 13
15 15 15 15 15 15 15 15 14 14 14 14 14 14 14 14 14 14 14 14 13 13 12 12 12 12 12 12 12 12 12 12 12 12 12 12 12 12 12 12 12 12 12
15 15 15 15 15 14 14 14 14 14 14 14 14 14 14 14 14 14 14 14 13 13 12 12 12 12 12 12 12 12 12 12 12 11 11 11 11 11 11 11 11 11 11
15 15 15 15 14 14 14 14 14 14 14 14 14 14 14 13 13 13 13 13 13 13 12 12 11 11 11 11 11 11 11 11 11 11 11 11 11 11 11 11 11 11 11
15 15 14 14 14 14 14 14 14 14 14 14 13 13 13 13 13 13 13 13 13 12 12 11 11 11 11 11 11 11 11 11 11 10 10 10 10 10 10 10 10 10 10
15 14 14 14 14 14 14 14 14 13 13 13 13 13 13 13 13 13 13 13 12 12 12 11 11 11 11 11 10 10 10 10 10 10 10 10 10 10 10 10 9 9 9
15 14 14 14 14 14 14 13 13 13 13 13 13 13 13 13 13 12 12 12 12 12 11 11 11 11 10 10 10 10 10 10 10 10 9 9 9 9 9 9 9 9 8
15 14 14 14 14 14 13 13 13 13 13 13 13 12 12 12 12 12 12 12 12 11 11 11 11 10 10 10 10 10 10 10 10 9 9 9 9 9 8 8 8 8 8
14 14 14 14 14 13 13 13 13 13 13 13 12 12 12 12 12 12 12 11 11 11 11 11 10 10 10 10 10 9 9 9 9 9 9 8 8 8 8 8 8 7 7
14 14 14 14 14 13 13 13 13 13 13 13 12 12 12 12 11 11 11 11 11 11 10 10 10 10 10 9 9 9 9 9 8 8 8 8 8 8 8 7 7 7 7
14 14 14 14 13 13 13 13 13 13 12 12 12 12 12 12 11 11 11 11 10 10 10 10 10 9 9 9 8 8 8 8 8 7 7 8 7 7 7 7 6 6 6
14 14 13 13 13 13 13 13 12 12 12 12 12 12 11 11 11 11 10 10 10 10 10 9 9 9 8 8 8 8 7 7 7 7 7 7 7 7 6 6 6 6 6
14 14 13 13 13 13 12 12 12 12 12 12 11 11 11 11 11 10 10 10 10 10 9 9 9 8 8 8 8 7 7 7 7 7 6 6 6 6 6 6 5 5 5
14 13 13 13 13 12 12 12 12 12 12 11 11 11 11 10 10 10 10 10 10 9 9 9 8 8 8 8 7 7 7 6 6 6 5 5 5 5 5 5 5 5 5
Wind_Speed
2 2 2 3 4 4 4 3 4 5 5 6 7 7 7 7 7 7 7 10 10 10 10 9 9 8 8 7 7 7 7 6 5 3 3 2 3 3 4 4 4 4 4
4 3 3 3 4 5 5 5 5 4 4 5 5 6 7 7 8 8 8 8 10 10 10 10 9 9 9 8 8 7 7 7 5 4 3 3 4 4 4 5 5 4 4
7 5 4 4 4 7 7 7 6 6 5 5 5 5 6 7 7 7 8 8 9 10 11 11 11 10 10 10 10 9 8 8 6 5 4 4 4 4 5 5 5 4 5
9 7 4 4 6 7 6 4 4 5 5 4 4 4 4 5 6 7 7 8 8 9 10 12 12 11 11 11 11 10 10 9 8 6 5 4 4 4 4 4 4 5 5
10 8 5 5 7 6 4 4 4 4 4 4 4 5 5 4 4 7 7 7 8 9 9 10 12 12 12 12 12 12 11 10 9 8 7 6 5 5 4 4 4 4 4
9 9 6 6 7 5 4 4 4 4 4 3 5 6 5 5 5 5 5 6 7 8 9 9 10 11 13 13 13 14 13 11 10 10 10 8 7 7 6 5 4 4 5
10 9 6 5 5 5 4 4 4 5 5 3 5 5 5 6 6 5 5 5 6 7 8 9 9 9 10 13 14 14 14 12 12 11 11 11 10 8 7 6 6 6 5
9 7 6 4 4 5 6 5 4 3 3 4 3 3 3 5 5 6 5 5 5 6 7 7 8 9 9 10 11 14 14 13 12 12 12 12 11 10 9 9 8 8 8
8 8 7 6 5 4 4 4 4 5 3 3 3 3 3 1 1 4 5 5 5 5 5 7 8 8 9 9 10 12 14 13 12 12 12 12 12 11 10 10 10 9 9
8 8 8 7 5 4 4 4 4 3 4 2 2 3 2 3 3 1 3 4 5 5 5 6 7 8 9 9 10 12 14 14 14 14 13 12 12 12 11 11 11 10 10
6 7 7 7 5 4 4 4 5 5 3 3 2 2 3 4 3 3 1 3 4 4 4 4 5 7 8 8 9 11 13 13 14 14 13 12 12 12 11 11 11 11 10
3 5 6 6 6 5 4 4 4 5 4 5 4 4 3 3 2 3 2 1 1 2 3 4 5 6 7 8 8 11 12 12 12 13 13 13 13 13 13 12 11 11 10
2 1 4 4 4 5 5 5 5 5 4 5 4 3 3 2 2 3 3 2 2 2 3 3 4 6 7 7 8 10 11 11 11 11 12 12 12 12 12 12 12 12 11
2 2 4 4 5 6 6 6 4 4 4 5 5 4 3 3 3 3 3 3 3 3 4 3 3 5 7 7 8 9 9 10 10 10 10 11 11 11 12 12 12 12 12
3 4 5 4 4 5 5 5 4 4 4 4 4 5 4 3 3 3 3 3 4 2 2 3 3 4 6 7 8 8 8 9 9 10 10 10 10 10 10 11 11 12 11
4 5 4 4 4 5 5 4 4 4 5 4 3 5 4 3 4 3 3 3 3 4 1 2 2 2 5 7 9 8 8 9 9 9 10 9 9 9 10 10 10 11 11
5 5 5 5 4 4 4 4 4 5 5 4 4 5 4 4 4 4 4 4 4 3 3 1 2 3 4 5 7 8 8 8 8 9 9 9 9 9 9 9 10 10 11
5 5 5 5 4 4 4 5 5 4 4 4 4 5 4 4 5 4 4 4 3 3 3 2 3 3 3 3 4 4 7 8 7 8 9 9 9 9 9 9 9 10 10
5 5 5 5 4 4 4 4 5 5 4 4 4 4 3 4 4 3 4 3 3 3 3 3 1 2 2 3 3 4 5 6 7 8 9 9 9 10 10 10 10 10 11
6 5 5 5 4 4 4 5 5 5 4 3 3 4 3 4 3 3 3 3 3 4 3 3 2 2 2 3 3 3 4 4 4 7 8 9 9 10 11 11 11 11 12
6 6 5 4 4 4 5 6 5 5 5 4 3 3 3 4 5 3 3 2 3 3 3 3 2 2 3 3 3 3 3 4 4 4 4 6 7 8 9 10 10 12 13
5 5 5 5 4 4 6 8 7 5 4 4 3 2 3 4 5 5 5 5 5 4 2 2 1 1 2 2 2 3 2 3 4 4 3 4 5 4 7 8 11 13 13
5 5 4 5 5 5 8 9 9 6 5 3 3 2 2 3 4 3 4 6 5 5 4 3 2 1 1 2 1 2 2 2 3 4 2 4 4 4 7 9 12 14 14
5 5 5 5 5 5 8 9 9 6 5 3 3 3 3 1 2 3 3 3 2 2 2 2 2 2 1 1 0 1 2 2 4 3 2 3 4 4 7 9 12 14 14
5 4 5 5 5 4 8 9 9 5 4 2 2 3 3 2 2 4 4 2 2 2 3 2 2 3 4 5 4 3 3 3 4 4 2 1 4 5 4 4 10 13 14
5 5 4 4 5 4 6 8 8 4 3 2 1 1 2 3 3 4 3 3 1 2 1 3 4 5 5 6 6 2 0 1 3 4 3 2 3 4 4 3 5 9 11
Wind_Direction
87 69 52 46 35 39 48 56 62 65 67 73 84 85 81 81 86 77 75 81 80 73 69 66 63 59 57 55 51 48 43 44 49 53 57 68 81 81 81 79 72 67 79
91 77 61 51 43 49 65 72 71 71 68 78 74 77 80 80 81 81 76 76 78 73 67 61 59 56 53 49 47 46 42 38 40 42 54 68 82 90 88 79 75 71 71
85 80 66 52 47 57 66 67 60 62 67 69 63 72 85 87 83 79 77 71 68 67 64 59 57 53 49 47 46 43 38 33 29 38 60 78 87 83 78 74 73 67 65
84 78 68 53 53 61 66 69 55 58 56 59 59 60 72 80 79 80 76 70 68 64 58 56 55 51 45 42 41 39 36 33 35 49 62 68 85 85 84 78 77 66 56
80 79 71 59 62 63 57 69 60 69 65 62 74 62 55 60 65 75 71 70 69 67 60 56 54 50 44 40 37 35 34 37 41 50 53 63 83 86 82 74 69 62 49
75 76 70 60 64 64 54 61 66 58 65 65 78 64 48 45 54 58 60 65 66 64 61 57 53 48 44 40 37 35 34 39 45 48 50 64 78 78 74 70 66 58 48
78 79 74 65 64 67 63 65 74 64 47 53 73 54 32 35 45 41 50 57 54 54 58 59 54 51 45 41 37 36 38 42 46 48 50 59 66 66 63 61 62 56 50
75 82 80 75 69 69 59 57 68 72 46 44 91 89 46 17 18 29 35 54 50 55 58 61 61 56 51 46 37 36 39 41 45 47 48 50 53 54 54 55 56 56 54
76 82 83 81 75 77 73 62 70 82 74 37 56 115 123 155 7 5 24 37 41 46 45 52 53 52 47 42 36 34 37 39 40 41 44 46 46 47 50 50 48 47 47
75 83 85 84 78 75 76 66 68 75 90 64 27 47 102 141 128 57 357 9 30 43 36 46 47 48 46 41 37 36 37 39 41 41 42 44 44 44 45 44 42 41 41
63 75 82 82 79 77 76 70 66 69 75 84 71 62 63 58 74 118 87 352 10 19 27 33 42 47 45 42 42 41 41 42 42 40 39 41 42 41 40 39 37 35 35
46 57 77 78 79 82 78 77 76 77 73 73 71 73 90 92 92 106 126 80 15 351 13 20 28 33 37 36 38 41 43 42 41 41 42 41 41 40 38 35 33 32 30
81 63 79 78 79 83 83 81 77 75 73 76 75 74 73 82 117 118 117 113 58 350 3 7 11 25 30 31 31 36 40 39 38 38 39 39 38 39 37 34 32 30 27
155 126 106 92 85 84 83 79 73 74 74 75 75 76 74 62 76 100 127 124 81 23 18 349 343 13 20 30 30 35 36 35 36 37 37 36 35 36 35 33 30 27 24
140 117 108 100 88 83 82 82 77 71 76 71 73 74 71 59 64 67 86 114 128 104 2 333 348 345 8 27 26 31 32 31 35 36 35 33 31 30 29 27 25 23 21
127 121 113 104 91 82 80 80 80 76 81 70 74 73 61 54 58 57 68 70 94 129 118 320 318 327 11 26 26 27 24 27 28 28 27 26 26 27 25 21 18 16 15
137 134 128 116 107 97 89 88 88 85 84 71 68 77 65 61 62 53 59 64 67 94 107 343 344 348 14 18 15 21 22 23 20 22 18 18 19 19 17 15 12 9 6
142 137 131 123 118 110 103 105 103 92 92 86 80 80 69 73 63 56 64 66 68 79 111 85 354 356 2 355 1 11 12 13 10 12 9 9 9 5 3 3 2 360 357
136 128 128 130 128 123 115 112 109 103 96 94 97 99 90 84 71 61 67 67 60 62 75 96 11 346 340 351 356 356 3 360 2 3 1 3 5 6 1 355 354 352 350
138 136 136 136 135 129 122 118 112 108 99 90 95 104 101 104 108 97 78 70 75 70 65 68 32 353 335 330 5 352 344 342 346 355 356 359 359 1 359 354 350 346 343
143 141 134 130 126 129 134 131 124 120 111 99 84 85 92 96 95 102 102 105 99 88 77 66 38 12 351 349 339 323 333 326 331 349 341 346 350 350 346 344 344 342 341
136 130 131 130 126 134 136 136 131 125 122 121 112 86 76 73 79 84 92 96 107 111 114 96 59 20 314 310 316 335 338 350 331 330 340 325 346 326 328 330 334 337 338
138 131 132 132 133 139 136 134 133 130 125 130 133 119 93 76 75 81 74 71 70 80 106 137 129 219 261 275 309 339 333 315 288 301 334 313 319 313 318 326 336 339 338
141 141 145 147 144 147 139 134 131 122 117 127 143 142 132 120 102 113 101 72 46 28 62 99 155 211 245 283 224 273 271 300 294 309 343 302 310 302 311 316 328 335 335
145 148 152 151 146 153 143 137 130 124 118 130 146 131 144 161 124 114 110 102 47 346 31 52 48 26 11 10 22 31 5 359 326 313 328 300 304 306 298 299 321 330 331
152 149 148 157 159 164 153 144 141 139 139 142 125 130 140 145 127 117 130 137 151 279 325 13 12 3 3 1 7 34 242 323 309 307 315 318 307 325 315 294 309 319 323
Height
1557 1557 1557 1557 1556 1556 1556 1555 1555 1555 1554 1554 1554 1554 1554 1553 1553 1552 1552 1551 1550 1550 1549 1548 1548 1547 1547 1546 1545 1544 1544 1543 1542 1542 1542 1542 1542 1542 1542 1542 1541 1540 1539
1558 1558 1558 1558 1557 1557 1557 1557 1556 1556 1556 1556 1555 1556 1555 1555 1554 1554 1553 1553 1552 1551 1550 1550 1549 1548 1547 1547 1545 1544 1543 1542 1541 1540 1540 1540 1541 1542 1542 1542 1542 1542 1542
1560 1559 1559 1559 1558 1558 1558 1557 1557 1557 1557 1557 1557 1557 1557 1556 1556 1556 1555 1554 1554 1553 1552 1551 1550 1549 1548 1547 1546 1544 1542 1541 1539 1538 1538 1539 1540 1541 1541 1542 1542 1542 1543
1561 1560 1560 1560 1560 1559 1559 1558 1558 1558 1558 1558 1558 1558 1558 1558 1558 1557 1557 1556 1555 1554 1553 1552 1551 1550 1549 1548 1546 1544 1542 1539 1537 1535 1536 1537 1538 1540 1541 1542 1542 1543 1543
1562 1561 1561 1560 1560 1560 1560 1559 1559 1559 1559 1560 1560 1560 1560 1560 1560 1559 1559 1558 1557 1556 1555 1554 1553 1551 1550 1548 1546 1544 1542 1539 1537 1535 1534 1533 1536 1539 1540 1541 1542 1543 1543
1562 1562 1562 1561 1561 1561 1560 1560 1560 1560 1560 1561 1561 1561 1561 1562 1561 1561 1560 1560 1559 1558 1557 1555 1554 1553 1551 1549 1547 1545 1543 1541 1539 1537 1534 1532 1535 1538 1540 1542 1542 1543 1543
1563 1563 1562 1562 1562 1561 1561 1561 1561 1561 1561 1562 1562 1563 1563 1563 1563 1563 1562 1561 1560 1559 1558 1557 1556 1554 1553 1550 1549 1546 1544 1542 1541 1540 1537 1536 1537 1540 1541 1542 1543 1543 1543
1564 1564 1564 1563 1563 1562 1562 1562 1562 1562 1562 1563 1563 1563 1564 1566 1565 1564 1564 1563 1562 1561 1560 1559 1557 1556 1554 1552 1550 1548 1547 1545 1544 1543 1541 1540 1541 1542 1542 1542 1543 1543 1542
1565 1565 1564 1564 1564 1564 1563 1563 1563 1563 1563 1563 1564 1564 1564 1565 1566 1566 1565 1564 1564 1562 1561 1560 1559 1557 1556 1554 1552 1551 1549 1548 1546 1545 1545 1544 1544 1544 1543 1543 1543 1543 1542
1566 1566 1565 1565 1565 1565 1564 1564 1565 1564 1564 1564 1564 1564 1565 1565 1565 1566 1567 1566 1565 1564 1563 1562 1560 1559 1557 1556 1554 1553 1551 1550 1549 1547 1547 1546 1545 1545 1544 1544 1543 1543 1542
1567 1566 1566 1566 1566 1566 1566 1566 1566 1566 1565 1565 1565 1565 1565 1565 1566 1566 1566 1567 1566 1565 1564 1563 1562 1560 1559 1558 1556 1554 1553 1552 1550 1549 1548 1547 1546 1545 1545 1544 1543 1542 1542
1567 1567 1567 1567 1567 1567 1567 1567 1567 1567 1566 1566 1566 1566 1566 1566 1566 1566 1566 1566 1566 1566 1566 1565 1563 1562 1561 1559 1558 1556 1555 1553 1552 1551 1549 1548 1547 1546 1545 1544 1543 1542 1541
1567 1568 1568 1568 1568 1568 1568 1568 1568 1568 1568 1567 1567 1567 1567 1567 1567 1567 1566 1566 1566 1567 1566 1566 1564 1563 1562 1561 1559 1558 1556 1554 1553 1551 1550 1549 1547 1546 1545 1544 1542 1541 1540
1567 1568 1568 1568 1569 1569 1569 1569 1569 1568 1568 1568 1568 1568 1568 1567 1567 1567 1567 1567 1566 1567 1566 1566 1565 1564 1563 1561 1560 1558 1557 1555 1554 1552 1551 1549 1548 1546 1545 1543 1542 1540 1539
1568 1568 1568 1569 1569 1569 1569 1570 1569 1569 1569 1569 1569 1569 1569 1568 1568 1568 1567 1567 1567 1566 1566 1566 1565 1564 1563 1562 1560 1559 1557 1556 1554 1552 1551 1549 1548 1546 1544 1543 1541 1539 1538
1568 1568 1568 1569 1569 1569 1569 1570 1570 1570 1570 1570 1570 1570 1569 1569 1569 1568 1568 1567 1567 1567 1566 1566 1566 1565 1563 1562 1561 1559 1557 1556 1554 1552 1551 1549 1547 1545 1543 1542 1540 1538 1537
1567 1568 1568 1569 1569 1569 1569 1570 1570 1570 1570 1570 1570 1570 1570 1570 1569 1568 1568 1567 1567 1567 1566 1566 1566 1565 1563 1562 1560 1559 1557 1555 1554 1552 1550 1548 1547 1545 1543 1541 1539 1537 1535
1567 1567 1568 1568 1569 1569 1569 1570 1570 1570 1570 1570 1570 1570 1570 1570 1569 1569 1568 1567 1567 1566 1566 1565 1565 1564 1563 1561 1560 1558 1557 1555 1553 1551 1549 1547 1546 1543 1541 1539 1537 1536 1533
1566 1567 1567 1568 1568 1569 1569 1569 1570 1570 1570 1570 1570 1570 1570 1570 1569 1569 1568 1567 1567 1566 1566 1565 1564 1563 1562 1561 1559 1558 1556 1554 1552 1550 1548 1546 1544 1542 1540 1538 1536 1534 1531
1565 1566 1566 1567 1567 1568 1568 1569 1569 1570 1570 1570 1570 1570 1570 1570 1569 1569 1568 1567 1567 1566 1565 1564 1563 1562 1561 1560 1558 1556 1554 1553 1551 1549 1547 1545 1543 1541 1538 1536 1534 1531 1529
1564 1565 1566 1566 1567 1567 1568 1568 1569 1569 1569 1569 1570 1569 1569 1569 1569 1568 1568 1567 1566 1565 1564 1563 1562 1561 1560 1558 1557 1555 1553 1551 1549 1547 1545 1543 1541 1538 1536 1533 1531 1528 1526
1563 1564 1565 1565 1566 1566 1567 1568 1568 1568 1569 1569 1569 1569 1569 1568 1568 1567 1567 1566 1565 1564 1563 1562 1561 1559 1558 1557 1555 1554 1552 1549 1546 1546 1543 1540 1539 1536 1533 1531 1528 1525 1523
1561 1562 1563 1564 1564 1565 1566 1567 1567 1568 1568 1568 1568 1568 1567 1567 1567 1566 1566 1565 1564 1563 1563 1562 1560 1558 1557 1556 1554 1552 1550 1548 1545 1543 1540 1537 1535 1533 1531 1528 1525 1522 1519
1560 1561 1562 1563 1563 1564 1565 1565 1566 1566 1566 1566 1566 1566 1566 1566 1565 1565 1564 1563 1563 1562 1561 1560 1559 1557 1556 1554 1552 1550 1548 1545 1543 1541 1538 1534 1531 1529 1527 1524 1522 1519 1516
1558 1559 1560 1561 1562 1563 1563 1564 1564 1564 1565 1565 1565 1565 1565 1564 1564 1563 1563 1562 1561 1560 1560 1558 1557 1556 1554 1552 1550 1548 1545 1542 1539 1537 1535 1532 1528 1525 1522 1520 1518 1515 1512
1556 1558 1559 1560 1560 1561 1562 1562 1563 1563 1563 1563 1563 1563 1563 1562 1562 1561 1561 1560 1559 1558 1557 1556 1555 1553 1552 1550 1548 1545 1543 1540 1536 1533 1531 1529 1525 1521 1517 1515 1513 1511 1507